Portada
METAR-TAF:

METAR-TAF

Aeroports :

Taba, Egipte

latitud: 29-35-57N, longitud: 034-46-36E, altitud: 749 m

METAR: manca

Hora: 08:48 (06:48 UTC)

Pronòstic

L'informe es va fer fa 1 hora i 48 minuts, a les 05:00 UTC
Pronòstic vàlid del 26 a les 06 UTC al 27 a les 12 UTC
Vent 10 kt del Nord/Nord-Est
Visibilitat 10 km o més
Núvols disperses a una alçada de 2500 ft

TAF: HETB 260500Z 2606/2712 03010KT 9999 SCT025

Observacions i pronòstics meteorològics de més de 4000 aeroports (METAR i TAF).

Les estacions disponibles són els punts grocs i vermells al mapa.

Posi el ratolí al punt desitjat per veure el nom de l'estació.

Feu clic per veure les observacions i els pronòstics meteorològics.

Per canviar el mapa: feu clic els botons verds amb una creu de color negre per apropar; al botó verd amb un guió per allunyar la imatge; o en les fletxes verdes per a mapes adjacents.


METAR-TAF: